Location: Baggettsville
(36.4767°N, 86.7303°W)
Time: 23:46:42
(UTC+00:00)

ATLAS 2AS CENTAUR R/B - Pass Details

Date: 29 October 2020
Orbit: 939 x 1273 km, 63.7° (Epoch: 23 November)

Event Time Altitude Azimuth Distance (km) Brightness Sun altitude
Rises 23:37:18 0° 335° (NNW) 4,153 6.0 -9.5°
Reaches altitude 10° 23:41:55 10° 359° (N) 3,121 5.1 -10.4°
Maximum altitude 23:45:37 14° 30° (NNE) 2,757 4.5 -11.2°
Enters shadow 23:48:38 11° 56° (NE) 2,923 4.4 -11.8°
